Regional Weather Roundup
Issued by NWS

Home | Current Version | Previous Version | Text Only | Print | Product List | Glossary On
Versions: 1 2 3 4 5 6 7 8 9 10 11 12 13 14 15 16 17 18 19 20 21 22 23 24 25 26 27 28 29 30 31 32 33 34 35 36 37 38 39 40 41 42 43 44 45 46 47 48 49 50
000
ASUS44 KOUN 221200
RWROK

WEATHER ROUNDUP FOR OKLAHOMA
NATIONAL WEATHER SERVICE NORMAN OK
600 AM CST WED FEB 22 2017

NOTE: "FAIR" INDICATES FEW OR NO CLOUDS BELOW 12,000 FEET WITH NO
      SIGNIFICANT WEATHER AND/OR OBSTRUCTIONS TO VISIBILITY.

OKZ001>007-009>012-014-015-017-221300-
NORTHWEST OKLAHOMA AND THE PANHANDLE

CITY           SKY/WX    TMP DP  RH WIND       PRES   REMARKS
GAGE           CLEAR     41  29  62 SW12      29.84F WCI  34
6HR MIN TEMP:  39; 6HR MAX TEMP:  49;

GUYMON         CLOUDY    47  16  29 W10       29.86R
$$

OKZ016-021>023-033>039-044-045-221300-
SOUTHWEST OKLAHOMA

CITY           SKY/WX    TMP DP  RH WIND       PRES   REMARKS
LAWTON/REGL    CLEAR     40  38  93 CALM      29.88F
6HR MIN TEMP:  39; 6HR MAX TEMP:  47;

LAWTON/FT SILL CLEAR     45  39  78 S5        29.86F
FREDERICK      CLEAR     44  40  85 S6        29.86R
CLINTON        CLEAR     50  38  63 S15       29.85F
HOBART         CLEAR     46  39  76 S13       29.87F
ALTUS AFB      CLOUDY    40  36  86 SE6       29.87S
$$

OKZ018>020-024>031-221300-
CENTRAL OKLAHOMA

CITY           SKY/WX    TMP DP  RH WIND       PRES   REMARKS
OKLAHOMA CITY  CLEAR     42  36  79 S8        29.86F
6HR MIN TEMP:  40; 6HR MAX TEMP:  49;

OKC/WILEY POST CLEAR     44  38  79 S7        29.86F
STILLWATER     CLEAR     39  37  92 CALM      29.86F
GUTHRIE        CLEAR     49  37  63 S7        29.85F
$$

OKZ008-013-054>072-221300-
NORTHEAST OKLAHOMA

CITY           SKY/WX    TMP DP  RH WIND       PRES   REMARKS
TULSA          CLEAR     48  43  82 S8        29.86S
6HR MIN TEMP:  42; 6HR MAX TEMP:  53;

TULSA/JONES    CLEAR     40  38  93 S3        29.88S
PONCA CITY     CLEAR     40  34  79 CALM      29.85F
BARTLESVILLE   CLEAR     34  32  92 CALM      29.87S
MUSKOGEE       FOG       44  44 100 SW5       29.90S VSB 1/2
$$

OKZ032-040>043-046>053-073>077-221300-
SOUTH CENTRAL/SOUTHEAST OKLAHOMA

CITY           SKY/WX    TMP DP  RH WIND       PRES   REMARKS
MCALESTER      PTCLDY    41  39  93 CALM      29.90S
$$




USA.gov is the U.S. government's official web portal to all federal, state and local government web resources and services.